TimeCAT,TemperatureF,Dew PointF,Humidity,Sea Level PressureIn,VisibilityMPH,Wind Direction,Wind SpeedMPH,Gust SpeedMPH,PrecipitationIn,Events,Conditions,WindDirDegrees,DateUTC
12:00 AM,77.0,62.6,61,29.86,-9999.0,NW,4.6,-,N/A,,Clear,320,2013-01-10 22:00:00
1:00 AM,77.0,62.6,61,29.86,-9999.0,NW,3.5,-,N/A,,Clear,310,2013-01-10 23:00:00
2:00 AM,75.2,62.6,65,29.86,-9999.0,NW,4.6,-,N/A,,Clear,310,2013-01-11 00:00:00
3:00 AM,71.6,60.8,69,29.86,-9999.0,North,5.8,-,N/A,,Clear,360,2013-01-11 01:00:00
4:00 AM,69.8,60.8,73,29.86,-9999.0,North,4.6,-,N/A,,Clear,10,2013-01-11 02:00:00
5:00 AM,71.6,60.8,69,29.86,-9999.0,Calm,Calm,-,N/A,,Clear,0,2013-01-11 03:00:00
6:00 AM,71.6,64.4,78,29.89,-9999.0,NW,4.6,-,N/A,,Clear,310,2013-01-11 04:00:00
7:00 AM,75.2,64.4,69,29.89,-9999.0,NW,8.1,-,N/A,,Clear,310,2013-01-11 05:00:00
8:00 AM,76,65,60,,6,WNW,9.2,,,,Scattered Clouds,290,2013-01-11 06:00:00
8:00 AM,77.0,64.4,65,29.92,6.2,WNW,9.2,-,N/A,,Mostly Cloudy,290,2013-01-11 06:00:00
9:00 AM,80.6,66.2,61,29.92,6.2,West,11.5,-,N/A,,Mostly Cloudy,280,2013-01-11 07:00:00
10:00 AM,82.4,66.2,58,29.95,6.2,WNW,9.2,-,N/A,,Mostly Cloudy,290,2013-01-11 08:00:00
11:00 AM,84.2,66.2,55,29.95,6.2,NW,8.1,-,N/A,,Scattered Clouds,310,2013-01-11 09:00:00
12:00 PM,84.2,68.0,58,29.92,6.2,West,11.5,-,N/A,,Scattered Clouds,260,2013-01-11 10:00:00
1:00 PM,86.0,64.4,48,29.89,6.2,West,11.5,-,N/A,,Scattered Clouds,280,2013-01-11 11:00:00
2:00 PM,91,65,32,,6,SSW,4.6,,,,Partly Cloudy,200,2013-01-11 12:00:00
2:00 PM,91.4,64.4,41,29.86,6.2,SSW,4.6,-,N/A,,Scattered Clouds,200,2013-01-11 12:00:00
3:00 PM,91.4,64.4,41,29.80,6.2,WNW,8.1,-,N/A,,Partly Cloudy,300,2013-01-11 13:00:00
6:00 PM,84.2,64.4,51,29.80,6.2,SE,10.4,-,N/A,,Partly Cloudy,140,2013-01-11 16:00:00
7:00 PM,80.6,64.4,58,29.83,6.2,South,10.4,-,N/A,,Partly Cloudy,180,2013-01-11 17:00:00
8:00 PM,80.6,64.4,58,29.86,6.2,East,1.2,-,N/A,,Partly Cloudy,100,2013-01-11 18:00:00
9:00 PM,78.8,64.4,61,29.89,6.2,SE,9.2,-,N/A,,Partly Cloudy,130,2013-01-11 19:00:00
10:00 PM,78.8,66.2,65,29.92,6.2,SE,5.8,-,N/A,,Partly Cloudy,130,2013-01-11 20:00:00
11:00 PM,77.0,68.0,74,29.95,6.2,ENE,8.1,-,N/A,,Mostly Cloudy,70,2013-01-11 21:00:00